Current Conditions for Foresthill, CA. Clear skies, Dry   
Visibility: 10 miles
Space WX Alerts: WATCH:  Geomagnetic Storm Category G1 Predicted ( Latest Alert ) - Issue Time: 2018 Jun 24 2030 UTC

  Summary / Temperature 

Current Temperature
70.7°F
21.5°C
(24/hr Ago)
74.2°F
(Apparent temp)
71.3°F
Comfortable
Heat Index
72.4°F 

75.8°F/ 24.3°C
Little or no discomfort

 Temp Rate:

 24/hr Difference:

 Avg Running Temp:

 Todays High:

 Todays Low:

 Y-days High:

 Y-days Low:

 Todays HeatIdx:

 Y-days HeatIdx:

 Evapotranspiration:

-3.4°F/hr 

-3.5°F

73.2°F

91.4°F 2:17pm

70.7°F 10:39pm

87.5°F 4:14pm

65.8°F 6:24am

89.1°F 2:24pm

85.6°F 5:19pm

0.251 in

115' Above Ground

 Temperature:

 6'AGL VRS 115'AGL:

 Avg Running Temp:

 Humidity:

 Todays High:

 Todays Low:

 Y-days High:

 Y-days Low:

74.0°F 

+3.3°F

74.6°F

54% 

91.0°F 1:22pm

73.0°F 9:46pm

89.0°F 5:21pm

70.0°F 6:15am

Temp & Humidity Graphs

  Wind 

Wind Speed

 2.0 mph

Gusting to

 7.0 mph

Wind from SE

130°  SE

Light air

 Avg speed:

 Wind Run:

 Peak Gust:

  2.0 mph 

42.0 miles

  23.0 mph 7:17am

  Almanac  

Moon age: 12 days,1 hours,14 minutes,92%

Waxing Gibbous
92%
Illuminated
12 days in cycle

 Moonrise:

 Moonset:

 Sunrise:

 Sunset:

 Solar Noon:

5:28pm

3:27am

5:38am

8:33pm

1:06pm

0min 10s less daylight tomorrow 

  Solar Radiation 

(Current Solar)
  No Sun Light
(Todays High)
 951 W/m2@12:50pm

Rain

 Rain Today:

 Rain Rate (/hr):

 Rain last hour:

 Rain Yesterday:

 This Month:

 Season Total:

29 Days Since Last Rain Day

0.00 in

0.000 in

0.00 in

0.00 in

0.00 in

42.44 in

Updated Time

Updated: 6/24/18  10:44pm

(Updated  sec ago)

Humidity & Barometer

 Humidity:

 Wetbulb:

 Dew Point:

 Barometer:

59% 

61.8°F 

55.7°F 

29.806 inHg 

 Baro Trend:  Steady 
Northern Calif
Preparedness
Fire 
Level 

    UV Index  

(Current UV)
0.0  None
(Todays High) @ 12:44pm
9.7   Very High

National Weather Service Forecast

Tonight

Tonight: Clear
Clear
Monday

Monday: Sunny
Sunny
Monday
Night
Monday Night: Clear
Clear
Tuesday

Tuesday: Sunny
Sunny
Tuesday
Night
Tuesday Night: Clear
Clear
Wednesday

Wednesday: Sunny
Sunny
Lo 66 °F Hi 88 °F Lo 64 °F Hi 89 °F Lo 63 °F Hi 87 °F

Foresthill Probe 2 Stats  
Foresthill Probe 2: is located on Thomas Street
at 3000 feet. The main Foresthill Weather site
is located on Melody ln at the 2860 foot elevation

Calm
71.0°F
21.7°C
Temp Rate:
-3.7°F
Calm
Gusting to
1.0 mph
(Humidity)
61%
Wind from S
178°  S
Updated: 24/06/18 - 22:39:38
 Todays High: 94.6°F 14:38
 Todays Low: 69.6°F 03:39
 Rain Today: 0.00 in
 Season Total: 44.79 in

Foresthill Wx: Monthly,Yearly, Highs and Lows 

Foresthill  
This Weather Data is coming from the main Foresthill
Weather site located on Melody ln at the 2860 foot
elevation
Not Foresthill Probe 2
Weather Data
Month
  High
Month
  Low
Year
High
Year
Low
Temp 91.4°F
6/24/18
46.3°F
6/1/18
91.4°F
6/24/18
21.9°F
2/23/18
Humidity 86%
6/17/18
16%
6/21/18
100%
1/8/18
15%
2/10/18
Heat Index 89.1°F
6/24/18
48.2°F
6/1/18
89.1°F
6/24/18
27.1°F
2/20/18
Wind Chill 91.4°F
6/24/18
44.3°F
6/10/18
91.4°F
6/24/18
9.2°F
2/23/18
Wind Gust 23 mph
6/24/18
0 mph
6/1/18
43 mph
3/1/18
0 mph
1/1/18
Barometer 30.11 in
6/1/18
29.60 in
6/16/18
30.55 in
1/27/18
29.60 in
6/16/18
ET 0.25 in
6/24/18
0.00 in
6/1/18
0.25 in
6/24/18
0.00 in
1/1/18
Dew Point 59.6°F
6/23/18
27.9°F
6/10/18
59.6°F
6/23/18
7.6°F
2/11/18
Pacific Satellite US Radar Satellite Imagery Sacramento,CA.  (click to enlarge)
NWS Weather Forecast - Summary
Updated: Sunday, June 24, 2018 - 2:52pm PDT
Red Flag Warning for Gusty Wind and Low Humidity for the Sacramento and Northern San Joaquin Valleys and Adjacent Foothills continues through this evening
Current Interstate Highway Conditions for I-80 & US-50

[I 80: IN THE SAN FRANCISCO BAY AREA - SOLANO CO]
no traffic restrictions are reported for this area.

[I 80: IN THE NORTHERN CALIFORNIA AREA & SIERRA NEVADA]
no traffic restrictions are reported for this area.

[US 50: IN THE SACRAMENTO VALLEY & THE LAKE TAHOE BASIN]
westbound traffic is reduced to 1 lane 3 mi west of riverton /at peavine ridge rd/ (EL DORADO CO) - due to a traffic collision
NWS Weather Forecast: Tonight and Monday (Updated: Sun, 24-Jun-2018 9:02pm PDT)
Tonight

Tonight: Clear
Clear

Lo 66 °F
NWS forecast: Clear, with a low around 66. East wind 2 to 6 mph.
Monday

Monday: Sunny
Sunny

Hi 88 °F
NWS forecast: Sunny, with a high near 88. South wind 3 to 8 mph.
YR.NO 10 Day Weather forecast
Last update: 06/24/2018 @ 12:35
Next update: 06/25/2018 @ 01:00
Provided by: 22
      Temperature Precipitation Pressure Wind  
Today
06/24/2018
20:00 00:00 75°F   29.84 inHg Light breeze from south 5 mph
    (Click to enlarge)
meteogram

    Forecast for next 9 days

      Temperature Precip Pressure Wind  
Monday
06/25/2018
00:00 06:00 63°F   29.87 inHg Light breeze from east-southeast 5 mph
  06:00 12:00 57°F   29.88 inHg Light air from east-southeast 3 mph
  12:00 18:00 84°F   29.92 inHg Gentle breeze from south-southwest 8 mph
  18:00 00:00 82°F   29.88 inHg Light breeze from south-southwest 6 mph
      Temperature Precip Pressure Wind  
Tuesday
06/26/2018
00:00 06:00 61°F   29.90 inHg Light breeze from east 4 mph
  06:00 12:00 57°F   29.89 inHg Light breeze from east 5 mph
  12:00 18:00 88°F   29.90 inHg Gentle breeze from southwest 8 mph
  18:00 00:00 86°F   29.84 inHg Light breeze from south-southwest 6 mph
      Temperature Precip Pressure Wind  
Wednesday
06/27/2018
00:00 06:00 61°F   29.87 inHg Light breeze from east 4 mph
  05:00 11:00 54°F   29.84 inHg Light breeze from east-northeast 4 mph
  11:00 17:00 82°F   29.86 inHg Light breeze from southwest 7 mph
  17:00 23:00 84°F   29.81 inHg Gentle breeze from south-southwest 8 mph
  23:00 05:00 63°F   29.83 inHg Light breeze from east 4 mph
      Temperature Precip Pressure Wind  
Thursday
06/28/2018
05:00 11:00 54°F   29.83 inHg Light breeze from east-northeast 4 mph
  11:00 17:00 79°F   29.86 inHg Light breeze from west-southwest 6 mph
  17:00 23:00 86°F   29.79 inHg Light breeze from west 6 mph
  23:00 05:00 68°F   29.82 inHg Light air from east-northeast 2 mph
      Temperature Precip Pressure Wind  
Friday
06/29/2018
05:00 11:00 57°F   29.79 inHg Light breeze from east-northeast 7 mph
  11:00 17:00 86°F   29.81 inHg Gentle breeze from west 8 mph
  17:00 23:00 91°F   29.74 inHg Gentle breeze from west-northwest 8 mph
  23:00 05:00 68°F   29.75 inHg Light breeze from east-northeast 5 mph
      Temperature Precip Pressure Wind  
Saturday
06/30/2018
05:00 11:00 64°F   29.77 inHg Gentle breeze from east-northeast 9 mph
  11:00 17:00 95°F   29.76 inHg Light air from north 2 mph
  17:00 23:00 97°F   29.74 inHg Gentle breeze from west 9 mph
  23:00 05:00 72°F   29.80 inHg Light breeze from east-northeast 5 mph
      Temperature Precip Pressure Wind  
Sunday
07/01/2018
05:00 11:00 66°F   29.83 inHg Light breeze from east-northeast 5 mph
  11:00 17:00 90°F   29.88 inHg Light breeze from southwest 7 mph
  17:00 23:00 90°F   29.85 inHg Light breeze from southwest 7 mph
  23:00 05:00 68°F   29.89 inHg Light breeze from east 6 mph
      Temperature Precip Pressure Wind  
Monday
07/02/2018
05:00 11:00 59°F   29.88 inHg Light air from east 3 mph
  11:00 17:00 84°F   29.88 inHg Light breeze from southwest 6 mph
  17:00 23:00 84°F   29.81 inHg Gentle breeze from southwest 8 mph
  23:00 05:00 64°F   29.83 inHg Light air from east-southeast 2 mph
      Temperature Precip Pressure Wind  
Tuesday
07/03/2018
05:00 11:00 57°F   29.78 inHg Light air from east 2 mph
  11:00 17:00 75°F   29.82 inHg Light breeze from southwest 7 mph
  17:00 23:00 79°F   29.78 inHg Gentle breeze from south-southwest 9 mph
  23:00 05:00 61°F   29.84 inHg Light breeze from southeast 4 mph
How Close Are We To this Month's Temperature Record ?
Updated Sunday, Jun 24, 2018- 10:35:01 PM

Current Temperature: 70.7°F

June's High: Temperature Record 95.1°F - Set on Sat, Jun 8, 2013 - 3:58:00 PM
We are currently 24.4°F Less than this Month's record High

June's Low: Temperature Record 40.8°F - Set on Tue, Jun 5, 2012 - 5:41:00 AM
We are currently 29.9°F More than this Month's record Low

Weather History For Monday, June 25, 2018


On this Day - In Weather History ...
Data courtesy of weatherforyou.com
powered by Cumulus v1.9.3 (1059)
Ambient Weather VWS v14.00
Top Contact Website Map Copyright © 2007 - 2018 Foresthillweather.com Never base important decisions on this or any weather information obtained from the Internet